Location: Newark
(35.6799°N, 139.7636°E)
Time: 04:31:32
(UTC+00:00)

Explorer 7 - Pass Details

Date: 10 December 2019
Orbit: 485 x 679 km, 50.3° (Epoch: 22 January)

Event Time Altitude Azimuth Distance (km) Brightness Sun altitude
Rises 08:29:41 0° 285° (WNW) 3,017 11.6 -12.4°
Reaches altitude 10° 08:32:49 10° 305° (NW) 2,114 10.3 -13.0°
Maximum altitude 08:36:01 17° 346° (NNW) 1,691 9.2 -13.6°
Enters shadow 08:39:00 11° 25° (NNE) 2,062 9.3 -14.2°
Drops below altitude 10° 08:39:13 10° 27° (NNE) 2,111 - -14.2°
Sets 08:42:21 0° 48° (NE) 3,010 - -14.8°
